Location: Dos Palmas
(32.4468°N, 116.8732°W)
Time: 00:08:21
(UTC+00:00)

CZ-4C R/B - Pass Details

Date: 20 June 2021
Orbit: 606 x 1396 km, 63.4° (Epoch: 27 July)

Event Time Altitude Azimuth Distance (km) Brightness Sun altitude
Exits shadow 09:57:12 40° 114° (ESE) 1,001 2.6 -26.3°
Maximum altitude 09:57:14 40° 113° (ESE) 1,002 2.6 -26.3°
Drops below altitude 10° 10:02:01 10° 44° (NE) 2,300 5.5 -25.7°
Sets 10:04:45 0° 38° (NE) 3,352 6.7 -25.4°
